This is the latest recevied weather packets stored in our database for station/object KG4AGD. If no packets are shown the sender has not sent any weather packets the latest 1 day(s).
| Time | Temp. | Humidity | Pressure | Rain* | Wind** | Luminosity | Snow |
|---|---|---|---|---|---|---|---|
| 1778003271 | 27.22° C | 50% | 1017.9 hPa | 0 mm | 1.34 m/s, 248° | - | - |
| 1778002969 | 27.22° C | 50% | 1017.9 hPa | 0 mm | 5.81 m/s, 227° | - | - |
| 1778002667 | 27.22° C | 50% | 1017.9 hPa | 0 mm | 3.13 m/s, 238° | - | - |
| 1778002365 | 27.22° C | 50% | 1017.9 hPa | 0 mm | 3.13 m/s, 222° | - | - |
| 1778002062 | 26.67° C | 49% | 1017.9 hPa | 0 mm | 4.02 m/s, 146° | - | - |
| 1778001760 | 26.67° C | 52% | 1017.9 hPa | 0 mm | 3.13 m/s, 173° | - | - |
| 1778001458 | 27.22° C | 53% | 1017.9 hPa | 0 mm | 1.34 m/s, 189° | - | - |
| 1778001156 | 26.67° C | 51% | 1017.9 hPa | 0 mm | 1.79 m/s, 170° | - | - |
| 1778000853 | 26.11° C | 52% | 1018.2 hPa | 0 mm | 3.58 m/s, 170° | - | - |
| 1778000551 | 26.11° C | 52% | 1018.2 hPa | 0 mm | 3.13 m/s, 157° | - | - |
| 1778000249 | 26.11° C | 53% | 1018.2 hPa | 0 mm | 3.58 m/s, 183° | - | - |
| 1777999947 | 26.11° C | 53% | 1018.2 hPa | 0 mm | 2.68 m/s, 175° | - | - |
| 1777999644 | 26.11° C | 54% | 1018.2 hPa | 0 mm | 2.68 m/s, 176° | - | - |
| 1777999342 | 26.11° C | 53% | 1018.2 hPa | 0 mm | 0.45 m/s, 184° | - | - |
| 1777999040 | 25.56° C | 56% | 1018.2 hPa | 0 mm | 3.13 m/s, 206° | - | - |
| 1777998738 | 25.56° C | 56% | 1018.2 hPa | 0 mm | 4.02 m/s, 228° | - | - |
| 1777998435 | 25.56° C | 56% | 1018.6 hPa | 0 mm | 4.02 m/s, 212° | - | - |
| 1777998133 | 25.56° C | 58% | 1018.2 hPa | 0 mm | 4.02 m/s, 158° | - | - |
| 1777997831 | 25° C | 55% | 1018.6 hPa | 0 mm | 1.79 m/s, 156° | - | - |
| 1777997528 | 25.56° C | 55% | 1018.6 hPa | 0 mm | 4.47 m/s, 232° | - | - |
| 1777997226 | 25.56° C | 55% | 1018.6 hPa | 0 mm | 3.58 m/s, 211° | - | - |
| 1777996924 | 25.56° C | 56% | 1018.9 hPa | 0 mm | 4.02 m/s, 271° | - | - |
| 1777996621 | 25.56° C | 55% | 1018.9 hPa | 0 mm | 5.81 m/s, 200° | - | - |
| 1777996318 | 25.56° C | 55% | 1018.9 hPa | 0 mm | 4.92 m/s, 170° | - | - |
| 1777996016 | 25° C | 58% | 1018.9 hPa | 0 mm | 1.34 m/s, 207° | - | - |
* Rain since midnight (hover to see other rain measurements)
** Current wind speed in m/s (hover to see current wind gust speed)